Location: Unspecified
(52.4850°N, 0.0000°E)
Time: 20:22:42
(UTC+00:00)

NOAA 16 DEB - Visible Passes

Search period start: 04 April 2026 00:00
Search period end: 14 April 2026 00:00
Orbit: 776 x 801 km, 98.7° (Epoch: 29 March)

Date Brightness Start Highest point End Pass type
(mag) Time Alt. Az. Time Alt. Az. Time Alt. Az.
4 Apr ? 20:38:21 29° SE 20:40:51 62° ENE 20:45:59 10° N visible
4 Apr ? 22:19:02 20° WSW 22:20:44 24° W 22:24:53 10° NW visible
5 Apr ? 20:07:50 19° ESE 20:10:59 38° ENE 20:15:44 10° N visible
5 Apr ? 21:48:30 29° SW 21:50:24 40° W 21:55:17 10° NNW visible
6 Apr ? 19:37:19 11° ESE 19:41:12 24° ENE 19:45:18 10° N visible
6 Apr ? 21:18:00 34° S 21:20:13 68° WSW 21:25:25 10° NNW visible
6 Apr ? 22:58:53 10° WSW 23:00:40 12° W 23:02:27 10° WNW visible
7 Apr ? 20:47:28 29° SSE 20:50:09 72° ENE 20:55:20 10° NNW visible
7 Apr ? 22:28:09 17° WSW 22:30:08 20° W 22:33:58 10° NW visible
8 Apr ? 20:16:56 20° SE 20:20:12 44° ENE 20:25:06 10° N visible
8 Apr ? 21:57:37 24° SW 21:59:46 34° W 22:04:29 10° NNW visible
9 Apr ? 19:46:24 12° ESE 19:50:22 28° ENE 19:54:42 10° N visible
9 Apr ? 21:27:05 30° SSW 21:29:30 58° WSW 21:34:39 10° NNW visible
10 Apr ? 20:56:32 28° SSE 20:59:22 84° ENE 21:04:36 10° NNW visible
10 Apr ? 22:37:12 13° WSW 22:39:29 17° W 22:42:55 10° NW visible
11 Apr ? 20:25:58 20° SE 20:29:21 51° ENE 20:34:23 10° N visible
11 Apr ? 22:06:38 21° SW 22:09:02 29° W 22:13:33 10° NNW visible
12 Apr ? 19:55:23 12° ESE 19:59:27 32° ENE 20:04:00 10° N visible
12 Apr ? 21:36:04 26° SSW 21:38:42 49° W 21:43:46 10° NNW visible
13 Apr ? 19:25:56 10° E 19:29:40 21° NE 19:33:24 10° N visible
13 Apr ? 21:05:29 26° SSE 21:08:30 84° WSW 21:13:44 10° NNW visible
13 Apr ? 22:46:10 11° WSW 22:48:45 15° W 22:51:39 10° NW visible
